User: anonymous   Login
Location: Cluny
(50.9333°N, 112.8167°W)
Time: 09:01:28
(UTC-07:00)
Language:

Cosmos 1743 Rocket - Orbit

View from above orbital plane
View from above orbital plane
View from above satellite
View from above satellite

Ground track
Ground track

The orbit data is extracted from the following two-line orbital elements,

1 16720U 86034B   15063.12208759  .00000495  00000-0  57907-4 0  9996
2 16720 082.5546 300.8400 0019938 343.6455 176.3953 14.82994685555334
Epoch (UTC): 04 March 2015 02:55:48
Eccentricity: 0.0019938
inclination: 82.5546°
perigee height: 606 km
apogee height: 634 km
right ascension of ascending node: 300.8400°
argument of perigee: 343.6455°
revolutions per day: 14.82994685
mean anomaly at epoch: 176.3953°
orbit number at epoch: 55533

The dashed part of the orbit path shows where the satellite is in the earth's shadow,  

DLR